Location: Ku?niki
(51.4449°N, 17.8974°E)
Time: 23:52:02
(UTC+00:00)

EO-79 - Pass Details

Date: 08 July 2022
Orbit: 588 x 603 km, 98.0° (Epoch: 18 August)

Event Time Altitude Azimuth Distance (km) Brightness Sun altitude
Rises 00:28:28 0° 16° (NNE) 2,864 ? -13.2°
Reaches altitude 10° 00:30:40 10° 20° (NNE) 1,959 ? -13.0°
Maximum altitude 00:34:53 63° 102° (ESE) 677 ? -12.8°
Enters shadow 00:38:07 17° 181° (S) 1,555 ? -12.6°
